Flag for U.S.A. Weather past 2 weeks in Sandpoint, Idaho, U.S.A.

Now
50 °F

Light rain. Overcast.


Feels Like: 50 °F
Forecast: 38 / 53 °F
Wind: No wind

Location: Sandpoint Airport

Current Time: Oct 22, 2014 at 3:48:51 PM

Latest Report: Oct 22, 2014 at 3:15 PM


Visibility: 10 mi

Pressure: 29.88 "Hg

Humidity: 82%

Dew point: 45 °F

Location of SandpointLocation

Historic Weather in Sandpoint — Graph

°F

Sandpoint temperature yesterday

Maximum temperature yesterday: 55 °F (at 12:15 AM)
Minimum temperature yesterday: 41 °F (at 11:15 PM)
Average temperature yesterday: 50 °F

Past Weeks' High & Low Weather Summary

 TemperatureHumidityPressure
High73 °F (Oct 7, 2:35 PM)100% (Oct 7, 8:55 PM)30.17 "Hg (Oct 7, 8:55 PM)
Low32 °F (Oct 17, 1:55 AM)34% (Oct 12, 2:55 PM)29.57 "Hg (Oct 15, 2:55 AM)
Average50 °F84%29.94 "Hg
* Reported Oct 7 2:15 PM — Oct 22 2:15 PM, Sandpoint, Weather by CustomWeather, © 2014

Note: Actual official high and low records may vary slightly from our data, if they occured in-between our weather recording intervals... More about our weather records

Advertising

Sandpoint weather history for previous 24 hours

 ConditionsComfort  
Time TempWeatherWind HumidityBarometerVisibility
2:15 PM
Oct 22
54 °FLight rain. Overcast.No wind63%29.89 "Hg10 mi
1:55 PM54 °FOvercast.No wind63%29.88 "Hg10 mi
1:15 PM54 °FOvercast.No wind63%29.90 "Hg10 mi
12:55 PM54 °FOvercast.No wind63%29.91 "Hg10 mi
12:35 PM54 °FOvercast.No wind58%29.91 "Hg10 mi
12:15 PM54 °FOvercast.3 mph63%29.92 "Hg10 mi
11:55 AM54 °FOvercast.3 mph63%29.94 "Hg10 mi
11:35 AM52 °FOvercast.3 mph72%29.94 "Hg10 mi
11:15 AM52 °FLight rain. Overcast.No wind72%29.94 "Hg10 mi
10:55 AM52 °FOvercast.No wind67%29.95 "Hg10 mi
10:35 AM50 °FOvercast.No wind71%29.94 "Hg10 mi
10:15 AM50 °FMostly cloudy.No wind71%29.95 "Hg10 mi
9:55 AM50 °FOvercast.No wind71%29.95 "Hg10 mi
9:35 AM50 °FOvercast.3 mph71%29.95 "Hg10 mi
9:15 AM50 °FOvercast.3 mph71%29.95 "Hg10 mi
8:55 AM48 °FOvercast.5 mph76%29.95 "Hg10 mi
8:35 AM48 °FOvercast.5 mph76%29.95 "Hg10 mi
8:15 AM46 °FOvercast.7 mph82%29.95 "Hg10 mi
7:15 AM45 °FClear.10 mph87%29.95 "Hg10 mi
6:55 AM45 °FClear.8 mph93%29.95 "Hg10 mi
6:35 AM45 °FClear.8 mph100%29.95 "Hg10 mi
6:15 AM37 °FFog.3 mph100%29.95 "Hg3 mi
5:55 AM39 °FClear.No wind100%29.96 "Hg10 mi
5:35 AM39 °FClear.No wind100%29.97 "Hg7 mi
5:15 AM41 °FPassing clouds.No wind100%29.97 "Hg10 mi
4:55 AM41 °FPassing clouds.No wind100%29.97 "Hg10 mi
4:35 AM43 °FPassing clouds.No wind100%29.97 "Hg10 mi
4:15 AM43 °FMostly cloudy.No wind100%29.98 "Hg10 mi
3:55 AM43 °FOvercast.No wind100%29.98 "Hg10 mi
3:35 AM43 °FOvercast.No wind100%29.98 "Hg10 mi
3:15 AM43 °FOvercast.No wind100%29.99 "Hg10 mi
2:55 AM45 °FOvercast.No wind100%29.99 "Hg10 mi
2:35 AM43 °FOvercast.6 mph100%29.99 "Hg10 mi
2:15 AM39 °FPartly cloudy.No wind100%29.99 "Hg10 mi
1:55 AM39 °FMostly cloudy.No wind100%29.99 "Hg10 mi
1:35 AM37 °FPartly cloudy.No wind100%29.99 "Hg10 mi
1:15 AM37 °FPassing clouds.3 mph100%29.99 "Hg10 mi
12:30 AM39 °FFog.No wind100%29.98 "Hg5 mi
12:15 AM41 °FPartly cloudy.No wind100%29.98 "Hg10 mi
11:55 PM
Oct 21
41 °FClear.5 mph100%29.98 "Hg10 mi
11:15 PM41 °FPassing clouds.No wind100%29.98 "Hg10 mi
10:55 PM43 °FPassing clouds.No wind100%29.98 "Hg10 mi
10:35 PM43 °FPassing clouds.No wind100%29.98 "Hg10 mi
10:15 PM43 °FPartly cloudy.No wind100%29.98 "Hg7 mi
9:55 PM45 °FPartly cloudy.3 mph100%29.98 "Hg10 mi
9:35 PM45 °FMostly cloudy.No wind100%29.98 "Hg10 mi
9:15 PM46 °FMostly cloudy.No wind100%29.97 "Hg10 mi
8:55 PM46 °FOvercast.No wind100%29.97 "Hg10 mi
8:35 PM46 °FPassing clouds.No wind100%29.97 "Hg10 mi
8:15 PM48 °FPartly cloudy.5 mph87%29.97 "Hg10 mi
7:55 PM46 °FMostly cloudy.3 mph100%29.96 "Hg10 mi
7:15 PM46 °FLight rain. Overcast.No wind100%29.97 "Hg10 mi
6:55 PM46 °FMostly cloudy.No wind100%29.96 "Hg10 mi
6:35 PM48 °FOvercast.No wind94%29.96 "Hg10 mi
6:15 PM48 °FOvercast.No wind94%29.95 "Hg10 mi
5:55 PM50 °FPartly sunny.No wind82%29.95 "Hg10 mi
5:35 PM52 °FOvercast.No wind72%29.94 "Hg10 mi
5:15 PM52 °FMostly cloudy.No wind72%29.94 "Hg10 mi
4:55 PM52 °FMostly cloudy.No wind72%29.94 "Hg10 mi
4:15 PM52 °FMostly cloudy.6 mph72%29.94 "Hg10 mi
3:55 PM52 °FOvercast.5 mph72%29.94 "Hg10 mi
3:15 PM54 °FMostly cloudy.6 mph63%29.94 "Hg10 mi
Weather by CustomWeather, © 2014

See weather overviewHow to use our weather pages